DW3400 Weather Reports


Display with metric or nautical units.
time (UTC)temp
F
wind
direction
speed
MPH
gust
MPH
rain 1hr
in
rain 24hr
in
rain mn
in
humidity
%
barometer
mb
20260507080004 52 36 3.0 7.0 0.00 0.00 0.00 69 1018.4
20260507074503 52 77 3.0 12.0 0.00 0.00 0.00 69 1018.4
20260507073503 52 60 3.0 8.0 0.00 0.00 0.00 70 1018.3
20260507072004 52 44 2.0 7.0 0.00 0.00 0.00 72 1018.4
20260507071004 51 66 3.0 8.0 0.00 0.00 0.00 74 1018.4
20260507064003 49 58 6.0 12.0 0.00 0.00 0.00 76 1018.1
20260507062003 48 359 3.0 8.0 0.00 0.00 0.00 79 1018.0
20260507061504 48 355 2.0 9.0 0.00 0.00 0.00 81 1018.0
20260507061004 47 39 5.0 8.0 0.00 0.00 0.00 80 1018.0
20260507060003 47 64 6.0 9.0 0.00 0.00 0.00 82 1017.9
20260507055004 47 8 2.0 6.0 0.00 0.00 0.00 83 1017.9
20260507054004 47 25 1.0 3.0 0.00 0.00 0.00 83 1017.8
20260507053504 47 300 0.0 3.0 0.00 0.00 0.00 84 1017.7
20260507053005 47 344 1.0 3.0 0.00 0.00 0.00 84 1017.7
20260507050504 44 5 0.0 2.0 0.00 0.00 0.00 90 1017.6
20260507050004 43 6 1.0 2.0 0.00 0.00 0.00 90 1017.6
20260507045504 43 314 0.0 1.0 0.00 0.00 0.00 91 1017.6
20260507044504 41 307 0.0 0.0 0.00 0.00 0.00 90 1017.5
20260507041504 40 297 0.0 1.0 0.00 0.00 0.00 90 1017.2
20260507040503 40 283 0.0 1.0 0.00 0.00 0.00 90 1017.0
20260507040004 40 283 0.0 1.0 0.00 0.00 0.00 91 1017.1
20260507035504 39 283 1.0 3.0 0.00 0.00 0.00 91 1017.0
20260507034504 39 301 1.0 2.0 0.00 0.00 0.00 91 1016.9
20260507034004 39 307 1.0 2.0 0.00 0.00 0.00 90 1016.8
20260507031004 39 318 0.0 1.0 0.00 0.00 0.00 89 1016.6
20260507025004 40 321 0.0 1.0 0.00 0.00 0.00 89 1016.4
20260507024504 40 321 0.0 2.0 0.00 0.00 0.00 89 1016.3
20260507024003 40 304 1.0 1.0 0.00 0.00 0.00 89 1016.3
20260507023004 41 314 1.0 3.0 0.00 0.00 0.00 89 1016.3
20260507022503 41 300 1.0 2.0 0.00 0.00 0.00 88 1016.3
20260507022003 41 298 1.0 2.0 0.00 0.00 0.00 88 1016.2
20260507020504 42 298 1.0 2.0 0.00 0.00 0.00 86 1016.2
20260507015504 43 348 1.0 3.0 0.00 0.00 0.00 85 1016.1
20260507014004 45 46 2.0 5.0 0.00 0.00 0.00 84 1016.1
20260507013504 45 46 1.0 3.0 0.00 0.00 0.00 84 1016.1
20260507013005 45 53 3.0 8.0 0.00 0.00 0.00 84 1016.1
20260507012004 45 65 2.0 7.0 0.00 0.00 0.00 85 1016.0
20260507011004 44 71 2.0 5.0 0.00 0.00 0.00 85 1016.0
20260507005004 45 87 3.0 6.0 0.00 0.00 0.00 85 1016.0
20260507003504 45 61 2.0 7.0 0.00 0.00 0.00 85 1015.8
20260507003004 45 68 2.0 7.0 0.00 0.00 0.00 84 1015.7
20260506234004 46 50 6.0 12.0 0.00 0.00 0.00 83 1015.6
20260506233504 45 60 4.0 12.0 0.00 0.00 0.00 83 1015.6
20260506233004 45 59 6.0 12.0 0.00 0.00 0.00 83 1015.6
20260506232504 45 60 4.0 12.0 0.00 0.00 0.00 83 1015.5
20260506232004 46 50 5.0 12.0 0.00 0.00 0.00 84 1015.6
20260506230504 46 55 5.0 12.0 0.00 0.00 0.00 84 1015.7
20260506225504 46 52 6.0 12.0 0.00 0.00 0.00 84 1015.7
20260506224504 46 52 3.0 8.0 0.00 0.00 0.00 84 1015.7
20260506222004 45 50 7.0 13.0 0.00 0.00 0.00 84 1015.5
20260506221003 45 64 6.0 12.0 0.00 0.00 0.00 84 1015.6
20260506214003 45 60 4.0 9.0 0.00 0.00 0.00 84 1015.3
20260506212003 45 63 6.0 12.0 0.00 0.00 0.00 84 1015.3
20260506211504 45 61 5.0 8.0 0.00 0.00 0.00 84 1015.3
20260506211004 45 65 4.0 8.0 0.00 0.00 0.00 84 1015.3
20260506205504 45 68 4.0 12.0 0.00 0.00 0.00 83 1015.3
20260506202504 45 89 5.0 14.0 0.00 0.00 0.00 84 1015.3
20260506200004 45 67 7.0 13.0 0.00 0.00 0.00 85 1015.0
20260506195503 45 62 7.0 13.0 0.00 0.00 0.00 85 1015.0
20260506195004 45 78 5.0 16.0 0.00 0.00 0.00 85 1014.9
20260506194504 45 64 5.0 12.0 0.00 0.00 0.00 85 1015.0
20260506194004 45 66 7.0 15.0 0.00 0.00 0.00 85 1015.0
20260506193504 45 65 7.0 17.0 0.00 0.00 0.00 85 1014.9
20260506193004 45 66 5.0 12.0 0.00 0.00 0.00 85 1015.1
20260506192004 45 78 7.0 14.0 0.00 0.00 0.00 85 1015.1
20260506191504 45 67 6.0 16.0 0.00 0.00 0.00 84 1015.1
20260506191003 45 76 6.0 14.0 0.00 0.00 0.00 84 1015.1
20260506185504 45 90 7.0 13.0 0.00 0.00 0.00 84 1014.8
20260506183504 46 77 6.0 14.0 0.00 0.00 0.00 84 1014.6
20260506183005 46 75 8.0 15.0 0.00 0.00 0.00 84 1014.5
20260506182504 46 88 7.0 15.0 0.00 0.00 0.00 84 1014.5
20260506182004 46 91 9.0 18.0 0.00 0.00 0.00 84 1014.4
20260506181003 46 76 7.0 17.0 0.00 0.00 0.00 83 1014.5
20260506180504 46 86 6.0 13.0 0.00 0.00 0.00 83 1014.4
20260506175504 46 75 9.0 16.0 0.00 0.00 0.00 82 1014.3
20260506174504 47 82 7.0 16.0 0.00 0.00 0.00 82 1014.3
20260506171003 48 68 6.0 16.0 0.00 0.00 0.00 80 1014.1
20260506165003 48 69 7.0 13.0 0.00 0.00 0.00 80 1013.8
20260506163502 49 57 8.0 17.0 0.00 0.00 0.00 78 1013.8
20260506162502 49 54 12.0 18.0 0.00 0.00 0.00 78 1013.8
20260506155003 50 56 7.0 16.0 0.00 0.00 0.00 80 1013.6
20260506154503 50 58 8.0 18.0 0.00 0.00 0.00 80 1013.6
20260506154003 51 53 8.0 18.0 0.00 0.00 0.00 79 1013.6
20260506153503 51 48 9.0 17.0 0.00 0.00 0.00 79 1013.5
20260506152503 51 56 9.0 16.0 0.00 0.00 0.00 79 1013.4
20260506151502 51 54 8.0 17.0 0.00 0.00 0.00 80 1013.5
20260506151003 51 52 9.0 15.0 0.00 0.00 0.00 79 1013.4
20260506145502 51 55 9.0 17.0 0.00 0.00 0.00 80 1013.4
20260506144503 52 49 9.0 17.0 0.00 0.00 0.00 79 1013.4
20260506143003 51 52 11.0 18.0 0.00 0.00 0.00 79 1013.2
20260506142503 52 45 8.0 14.0 0.00 0.00 0.00 79 1013.2
20260506142003 51 70 8.0 17.0 0.00 0.00 0.00 79 1013.2
20260506141002 52 64 9.0 15.0 0.00 0.00 0.00 77 1013.2
20260506135003 52 57 9.0 15.0 0.00 0.00 0.00 75 1013.1
20260506134502 52 55 11.0 18.0 0.00 0.00 0.00 72 1013.1
20260506134003 52 55 10.0 15.0 0.00 0.00 0.00 71 1013.1
20260506133503 53 71 7.0 12.0 0.00 0.00 0.00 71 1013.0
20260506133003 53 49 10.0 15.0 0.00 0.00 0.00 70 1013.0
20260506130004 54 52 8.0 13.0 0.00 0.00 0.00 67 1012.8
20260506125003 54 57 10.0 14.0 0.00 0.00 0.00 65 1012.7
20260506124502 54 49 6.0 14.0 0.00 0.00 0.00 68 1012.6
20260506124003 54 56 7.0 14.0 0.00 0.00 0.00 69 1012.7
20260506123002 54 55 7.0 20.0 0.00 0.00 0.00 69 1012.6
20260506122503 54 67 8.0 14.0 0.00 0.00 0.00 71 1012.5
20260506122002 54 43 9.0 14.0 0.00 0.00 0.00 69 1012.3
20260506121503 55 51 6.0 17.0 0.00 0.00 0.00 69 1012.4
20260506120502 54 42 5.0 12.0 0.00 0.00 0.00 70 1012.4
20260506114003 54 52 6.0 12.0 0.00 0.00 0.00 73 1012.4
20260506111003 54 57 3.0 13.0 0.00 0.00 0.00 75 1012.4
20260506110503 54 4 5.0 13.0 0.00 0.00 0.00 72 1012.4
20260506103502 55 53 9.0 13.0 0.00 0.00 0.00 71 1012.4
20260506103003 55 72 4.0 10.0 0.00 0.00 0.00 73 1012.3
20260506101503 55 32 3.0 9.0 0.00 0.00 0.00 68 1012.4
20260506100502 55 14 2.0 9.0 0.00 0.00 0.00 67 1012.3
20260506100003 55 10 3.0 7.0 0.00 0.00 0.00 66 1012.3
20260506092003 55 2 2.0 6.0 0.00 0.00 0.00 66 1012.1
20260506091503 55 23 3.0 7.0 0.00 0.00 0.00 65 1012.0
20260506091003 55 15 6.0 10.0 0.00 0.00 0.00 63 1012.0
20260506090503 55 29 3.0 8.0 0.00 0.00 0.00 64 1012.0
20260506085502 55 7 1.0 6.0 0.00 0.00 0.00 66 1012.0
20260506085003 54 340 3.0 8.0 0.00 0.00 0.00 65 1011.9
20260506084503 54 355 3.0 8.0 0.00 0.00 0.00 66 1012.0
20260506084002 54 1 3.0 8.0 0.00 0.00 0.00 63 1012.0
20260506083503 54 323 3.0 8.0 0.00 0.00 0.00 65 1011.9